User: anonymous   Login
Location: Unspecified
(0.0000°N, 0.0000°E)
Time: 16:53:17
(UTC+00:00)
Language:

APRIZESAT 3 - Orbit

View from above orbital plane
View from above orbital plane
View from above satellite
View from above satellite

Ground track
Ground track

The orbit data is extracted from the following two-line orbital elements,

1 35686U 09041F   14296.82315807  .00002305  00000-0  26093-3 0  6594
2 35686 098.1636 246.3345 0073842 278.3008 139.0847 14.85547977283475
Epoch (UTC): 23 October 2014 19:45:20
Eccentricity: 0.0073842
inclination: 98.1636°
perigee height: 560 km
apogee height: 663 km
right ascension of ascending node: 246.3345°
argument of perigee: 278.3008°
revolutions per day: 14.85547977
mean anomaly at epoch: 139.0847°
orbit number at epoch: 28347

The dashed part of the orbit path shows where the satellite is in the earth's shadow,  

DLR